Regional Weather Roundup
Issued by NWS Upton, NY

Current Version | Previous Version | Text Only | Print | Product List | Glossary Off
Versions: 1 2 3 4 5 6 7 8 9 10 11 12 13 14 15 16 17 18 19 20 21 22 23 24 25 26 27 28 29 30 31 32 33 34 35 36 37 38 39 40 41 42 43 44 45 46 47 48 49 50
000 ASUS41 KOKX 240609 RWROKX REGIONAL WEATHER ROUNDUP NATIONAL WEATHER SERVICE NEW YORK NY 200 AM EDT SAT JUN 24 2017 NOTE: "FAIR" INDICATES FEW OR NO CLOUDS BELOW 12,000 FEET WITH NO SIGNIFICANT WEATHER AND/OR OBSTRUCTIONS TO VISIBILITY. NYZ071-072-176-178-NJZ106-104-240700- NEW YORK CITY METRO AREA CITY SKY/WX TMP DP RH WIND PRES REMARKS Central Park PTCLDY 76 73 91 VRB7G20 29.65S Bronx Bot Gard N/A 77 70 78 W3 29.62F LaGuardia APRT MOCLDY 78 74 87 SW13 29.62R Kennedy INTL HVY RAIN 73 72 96 SW10 29.65R FOG Breezy Point N/A 72 N/A N/A W13G24 N/A Newark/Liberty CLOUDY 75 72 90 SW12 29.63R Teterboro LGT RAIN 76 72 87 SW13 29.61F $$ NYZ177-179-078>081-240700- LONG ISLAND NEW YORK CITY SKY/WX TMP DP RH WIND PRES REMARKS Jones Beach N/A 68 N/A N/A S8G16 N/A Matinecock PT NOT AVBL Farmingdale NOT AVBL MacArthur/ISP PTCLDY 73 70 90 SW10 29.62F Shirley PTCLDY 73 71 93 SW9G17 29.63F Mt Sinai Harb N/A N/A N/A N/A S8 N/A Westhampton PTCLDY 71 67 87 SW15G24 29.65F East Hampton FAIR 72 69 89 SW9G18 29.63S Montauk N/A 73 70 90 SW12G22 29.64F $$ NYZ052-065-067-240700- HUDSON VALLEY CITY SKY/WX TMP DP RH WIND PRES REMARKS White Plains PTCLDY 77 70 78 VRB7 29.62F Larchmont Harb N/A 75 N/A N/A SW16G22 N/A Croton O-T Hud N/A 77 N/A N/A S9 N/A Newburgh CLEAR 75 73 94 W12 29.61F Montgomery PTCLDY 74 71 91 SW10 29.60S Poughkeepsie CLOUDY 76 71 85 SW8 29.57S Albany CLOUDY 74 70 87 S10 29.54F $$ NJZ001-105-106-008-010-013-015-019>022-104-240700- NEW JERSEY CITY SKY/WX TMP DP RH WIND PRES REMARKS Newark/Liberty CLOUDY 75 72 90 SW12 29.63R Teterboro LGT RAIN 76 72 87 SW13 29.61F Caldwell MOCLDY 75 71 87 VRB5 29.63S Somerville RAIN 73 72 96 S3 29.63F FOG Linden LGT RAIN 74 71 88 W5 29.63S Perth Amboy N/A 73 N/A N/A W7 N/A Sussex CLOUDY 73 72 96 SW5 29.62S Andover N/A 72 70 93 S6 29.64S Trenton LGT RAIN 75 72 90 W8 29.65R Millville MOCLDY 81 74 79 SW9 29.67F Atlantic City NOT AVBL Wrightstown CLEAR 80 72 76 SW14 29.62F Toms River CLEAR 77 72 84 SW9 29.65F Belmar PTCLDY 78 72 81 SW8 29.65F $$ PAZ047>061-062-071-240700- EASTERN PENNSYLVANIA CITY SKY/WX TMP DP RH WIND PRES REMARKS Philadelphia MOCLDY 83 71 67 SW15G25 29.64F Allentown LGT RAIN 73 70 90 SW5 29.64F Scranton LGT RAIN 73 71 93 SW5 29.64S $$ CTZ002-004>006-009-010-012-RIZ004-006-007-MAZ004-011-015-240700- SOUTHERN NEW ENGLAND IN CT CITY SKY/WX TMP DP RH WIND PRES REMARKS Bradley INTL CLOUDY 76 71 85 S7 29.57F Hartford CLOUDY 76 72 87 S7 29.57F Danbury MOCLDY 76 72 87 SW12 29.62F Wtrbury/Oxford CLOUDY 73 68 83 SW5 29.62F Bridgeport CLOUDY 73 68 84 SW8 29.60F Meriden MOCLDY 73 70 90 S7 29.59F New Haven NOT AVBL Chester FAIR 73 72 94 S8 29.61F Groton CLOUDY 70 68 93 SW6 29.61F Wilimantic CLOUDY 76 72 87 S7 29.60F IN RI CITY SKY/WX TMP DP RH WIND PRES REMARKS Providence CLOUDY 74 72 93 SW9 29.61F Block Island NOT AVBL Westerly MOCLDY 72 69 90 SW7 29.63F IN MA CITY SKY/WX TMP DP RH WIND PRES REMARKS Boston CLOUDY 73 70 90 SW12 29.56F Worcester CLOUDY 72 70 93 SW12 29.60F Westfield MOCLDY 74 73 97 S8 N/A Provincetown CLOUDY 67 66 97 S16G22 29.61F FOG Nantucket FOG 65 65 100 SW18G28 29.67F VSB 1/2 $$ ANZ330-335-338-340-345-350-353-355-240700- COASTAL MARINE OBSERVATIONS STATION/POSITION TIME SKY/WX TEMP WIND PRES VSBY WAVE AIR SEA DIR/SP/G HT/PER (UTC) (F) (DEG/KT/KT) (MB) (MI) (FT/S) NY HARB ENTRANCE 0450 68 65 210/ 17/ 19 1003.4 4/ 7 20 S FIRE ISLAND 0550 72 68 220/ 21/ 23 1003.0 6/ 7 GREAT SOUTH BAY 0445 72 76 220/ 19/ 23 N/A 23 SSW MONTAUK P 0550 69 64 1003.8 7/ 7 15 E BARNEGAT LI 0530 61 N/A 6/ 6 HUDSON CANYON 0450 71 66 210/ 21/ 25 1005.7 7/ 7 KINGS POINT 0530 72 64 260/ 6/ 9 1002.9 EXECUTION ROCKS 0545 72 220/ 12/ 17 N/A CENTRAL LI SOUND 0545 73 210/ 14/ 16 N/A 1 EASTERN LI SOUND NOT AVBL ROBBINS REEF 0548 240/ 18/ 25 1004.0 $$ >>>>>>>>>>>>>>>>>>>>>>>>>>>> KEY <<<<<<<<<<<<<<<<<<<<<<<<<<< > < > SKY/WX - Sky Condition/Present Weather < > TMP - Temperature in Fahrenheit < > DP - Dew Point in Fahrenheit < > RH - Relative Humidity in Percent < > WIND - Direction (from) and Speed in MPH < > PRES - Mean Sea Level Pressure (inches of Hg) < > WCI - Wind Chill Index < > VSB - VISIBILITY IN MILES < > HX - HEAT INDEX < > TC - TEMPERATURE IN CELSIUS < > VRB - VARIABLE WIND DIRECTION < > < >>>>>>>>>>>>>>>>>>>>>>>>>>>> KEY <<<<<<<<<<<<<<<<<<<<<<<<<<<

USA.gov is the U.S. government's official web portal to all federal, state and local government web resources and services.